Theta_e
324 325 327 331 334 334 334 334 332 332 332 332 332 331 331 330 330 329 329 329 330 330 331 331 331 330 330 331 331 330 329 327 325 324 323 322 322 323 323 324 324 324 325 325 325 323 321 320 320 320 320 320 319 319 320 320 319 319 319 319 319 318 317 316 316 316 315 315 315 316 316 317 317 317
323 323 324 328 333 335 335 334 333 333 333 332 332 332 331 329 327 328 328 328 328 329 330 330 329 329 330 330 329 327 325 323 323 323 323 323 323 323 323 323 324 325 325 325 324 324 322 321 321 321 321 321 321 320 321 321 321 319 318 319 319 319 319 319 319 318 318 317 317 317 316 316 316 317
321 322 322 325 330 333 334 333 332 332 333 333 333 332 332 329 327 327 327 325 324 325 327 328 326 326 327 328 326 324 323 323 323 323 323 322 322 321 321 321 322 324 325 325 325 324 323 323 323 323 323 324 323 322 322 323 323 321 321 321 321 321 321 321 320 320 320 319 319 318 318 317 317 316
319 320 321 323 327 331 332 332 332 332 332 332 332 332 330 328 327 327 325 323 323 324 325 325 324 323 324 324 324 324 324 325 325 324 323 322 320 319 319 319 320 321 323 324 325 324 324 324 324 324 325 325 325 325 324 324 324 323 323 323 323 324 323 323 322 321 321 321 321 320 319 318 317 316
319 319 319 322 326 329 331 333 333 332 331 331 331 330 329 327 327 326 324 324 324 324 324 322 323 324 324 324 324 325 326 326 326 326 325 323 321 320 318 318 319 320 321 323 323 324 324 324 325 325 325 326 326 326 325 325 324 323 322 322 322 323 324 324 324 324 323 323 323 322 321 320 319 317
318 319 318 320 325 328 331 333 333 331 329 329 329 328 327 326 326 325 326 326 324 323 323 323 325 325 326 326 326 327 327 327 327 327 326 323 321 320 319 319 319 319 320 321 322 322 322 323 323 323 324 325 325 326 325 325 324 323 322 321 321 321 322 323 324 324 324 324 324 323 323 321 321 320
318 320 320 319 322 326 329 332 333 332 330 330 329 326 325 326 326 326 327 327 326 324 324 324 326 327 327 328 328 328 328 328 328 328 327 324 321 320 319 319 319 319 320 321 322 322 322 322 322 322 322 323 324 325 325 324 323 322 320 319 319 320 321 322 322 322 323 324 324 324 323 322 321 321
318 321 322 321 323 327 329 332 334 334 333 333 330 326 325 326 325 326 328 328 327 326 325 325 326 327 328 328 328 328 328 328 328 328 328 326 323 321 320 319 319 319 321 322 323 323 323 323 323 323 323 324 324 324 324 323 321 319 318 317 317 318 318 319 318 318 319 321 323 324 324 323 322 322
319 320 322 323 324 327 329 331 333 333 333 332 328 325 326 327 325 326 327 328 328 329 327 326 327 328 328 327 327 328 328 329 329 329 329 328 326 324 321 320 320 321 322 323 324 324 324 323 323 324 324 325 324 324 322 319 317 315 314 315 315 315 316 316 317 317 316 317 320 323 324 324 323 323
319 320 322 323 324 325 327 328 330 331 329 326 324 324 326 327 327 328 328 329 331 331 329 327 327 327 327 328 328 327 328 330 330 330 329 328 327 325 322 320 320 322 322 322 324 325 325 324 323 323 323 323 322 320 317 314 313 312 312 312 312 313 315 316 317 317 316 316 318 320 322 323 324 323
319 320 321 322 323 323 324 325 328 329 328 325 325 326 328 328 329 331 331 332 332 330 328 327 326 327 327 328 328 327 327 328 329 329 329 328 325 322 320 319 319 321 322 322 323 324 325 325 324 322 321 319 318 315 313 312 312 312 313 313 313 313 315 316 315 315 316 317 318 319 320 322 322 323
319 320 321 323 324 324 324 325 327 329 329 327 326 328 330 331 331 332 332 331 330 329 328 327 326 327 328 329 329 327 326 326 327 328 329 327 323 319 318 318 319 321 321 321 321 322 323 323 322 319 317 316 315 314 313 313 313 313 314 315 315 314 315 315 314 315 315 316 317 317 318 319 321 322
321 320 322 324 326 326 326 328 330 330 328 326 327 329 332 334 334 333 331 330 329 329 328 328 327 328 329 329 329 327 327 326 326 327 328 326 322 321 320 318 318 321 321 321 320 320 320 319 318 317 316 316 316 316 316 316 315 315 315 316 316 316 316 316 316 317 316 317 317 318 318 319 320 321
322 322 322 323 325 326 326 328 331 330 326 324 329 333 334 334 333 332 332 331 329 329 329 329 329 329 329 329 328 327 327 326 326 327 327 325 323 323 323 320 318 320 321 320 319 318 318 317 317 318 317 317 317 316 316 316 316 316 316 316 317 317 318 318 318 318 318 318 319 319 319 320 320 320
321 322 323 322 323 324 325 327 329 330 327 326 331 335 335 334 333 332 332 331 329 330 330 330 331 331 330 329 327 326 327 326 326 326 326 325 325 326 325 323 320 319 319 319 318 318 318 318 318 318 317 317 316 316 315 316 316 317 317 317 317 317 318 318 318 318 319 319 319 319 319 319 319 319
320 322 324 323 323 323 325 327 328 328 329 331 334 335 335 334 333 333 333 332 331 330 330 331 331 331 330 328 325 325 327 326 326 325 324 325 326 326 326 325 323 319 318 318 318 318 318 318 319 318 317 317 315 314 314 315 317 317 317 317 317 316 316 315 315 315 316 316 317 317 317 317 316 316
322 321 322 323 324 322 324 327 328 327 330 334 335 336 335 334 334 333 333 332 330 327 327 330 331 330 329 327 325 326 327 326 324 323 323 324 325 326 325 325 323 320 318 318 318 318 319 319 319 318 317 317 315 312 313 314 315 316 316 316 316 316 316 316 315 315 314 312 311 310 311 312 313 314
327 322 321 322 324 324 323 325 327 328 330 333 335 335 335 334 334 333 332 331 327 325 326 328 329 329 328 326 326 326 326 325 323 323 324 324 325 325 325 323 322 319 318 319 319 320 320 319 319 318 318 317 315 313 313 314 315 316 316 316 316 315 315 314 313 312 310 309 309 310 313 315 316 318
333 329 324 321 323 326 324 323 328 330 331 334 335 334 334 334 333 332 331 328 325 323 323 325 327 328 327 326 326 326 325 323 323 324 325 325 324 324 323 321 320 319 319 320 320 320 319 318 318 318 318 318 316 316 316 316 315 313 311 311 311 311 311 312 312 312 312 313 315 317 318 318 318 318
337 334 329 323 325 328 326 326 331 333 334 335 335 334 333 332 331 331 329 325 322 321 322 325 328 328 327 326 326 325 324 324 324 325 325 324 322 322 321 320 319 319 319 319 320 320 319 318 319 319 319 318 317 316 314 311 308 308 309 311 313 315 316 317 318 318 318 318 318 318 317 317 316 316
339 336 331 327 328 329 327 328 334 336 336 336 333 332 330 328 328 329 326 322 319 320 323 327 329 329 327 326 325 324 325 325 326 325 323 321 320 320 320 320 320 320 319 318 318 319 318 318 318 318 317 315 312 309 307 306 308 312 315 316 317 318 318 319 319 319 319 318 317 317 316 316 316 316
340 337 332 329 329 330 329 331 336 338 337 335 333 332 330 327 326 326 324 321 319 320 325 329 330 329 327 326 325 325 326 326 325 322 320 320 319 320 320 320 320 319 318 318 317 317 316 316 315 312 310 308 305 305 308 311 314 316 317 317 317 317 317 318 318 319 319 318 317 316 317 317 317 316
340 338 334 330 329 330 332 335 337 338 336 334 333 333 330 327 326 325 323 321 319 320 326 330 329 328 328 326 324 324 324 324 321 319 319 319 319 319 318 318 317 317 317 317 315 314 313 312 308 306 307 307 306 308 313 315 315 316 316 316 316 316 316 317 318 318 318 318 317 317 317 317 317 316
341 338 334 330 328 329 333 336 338 338 336 334 333 332 329 327 325 324 321 320 320 323 328 329 327 326 324 322 320 321 321 320 318 318 319 319 319 318 317 317 316 315 315 314 311 309 308 307 305 306 309 310 311 312 313 313 314 314 315 315 315 315 316 316 317 318 318 318 318 317 317 317 316 315
340 337 333 329 326 326 330 333 334 334 332 332 332 332 329 325 322 321 320 322 325 328 329 327 324 322 320 319 319 319 318 318 318 319 320 319 319 318 317 315 312 311 311 310 308 307 307 307 307 309 310 311 311 312 312 312 313 313 314 314 315 316 316 317 317 317 318 318 318 318 317 316 315 315
335 334 331 327 324 324 327 330 330 330 330 331 332 330 326 323 321 322 325 327 329 327 325 322 320 319 318 318 318 318 318 318 318 318 319 319 318 318 315 311 308 308 308 306 306 307 308 308 309 310 310 310 310 310 311 311 311 312 313 315 316 316 316 317 318 318 318 318 317 317 316 315 315 315
331 329 327 326 326 328 330 331 331 332 332 331 329 326 324 325 326 327 328 327 325 322 320 319 318 317 317 317 317 317 316 316 316 316 316 316 316 316 312 308 306 307 307 306 306 308 309 309 309 309 309 309 308 308 309 310 310 312 314 316 316 316 317 317 317 317 317 316 316 316 315 315 315 315
331 331 330 330 331 333 333 334 333 331 329 326 323 324 327 329 328 327 324 322 320 319 318 317 316 316 315 315 315 315 315 315 315 314 314 314 314 313 309 306 306 307 307 307 308 309 309 309 309 308 308 308 308 308 309 310 312 314 316 316 315 316 316 317 317 317 316 316 315 315 315 315 314 314
334 335 334 334 334 333 331 330 328 325 323 322 324 326 328 327 324 322 321 320 319 318 317 317 316 316 315 315 316 316 316 316 315 315 315 315 313 309 306 305 306 306 307 308 308 308 308 308 308 307 307 308 308 309 310 312 314 315 316 315 315 315 316 317 317 317 316 315 315 315 314 314 314 314
336 336 335 335 333 329 326 326 325 324 325 326 326 326 325 323 321 321 321 320 319 318 317 317 316 316 316 316 316 316 316 316 316 316 315 312 309 306 306 306 306 306 307 308 308 307 307 306 306 307 308 309 311 312 314 315 315 315 315 315 315 316 316 317 317 316 315 314 314 314 314 313 313 314
336 335 335 335 332 328 327 327 326 326 326 326 325 324 322 321 322 321 320 319 318 318 318 317 317 317 317 317 317 317 317 317 316 314 311 308 306 306 306 306 306 306 306 307 307 306 306 306 307 308 309 311 313 314 315 315 314 314 315 315 316 316 317 316 316 315 314 313 313 313 313 313 313 313
334 335 336 334 329 326 328 328 325 324 324 324 323 322 322 322 323 321 320 319 318 318 318 318 318 318 318 318 317 316 315 314 312 309 307 307 306 306 306 306 306 306 306 306 305 305 306 306 307 308 310 312 313 313 313 313 314 315 316 316 316 316 316 315 314 314 313 313 313 313 313 313 312 312
335 335 333 329 324 325 327 327 324 323 323 323 323 324 323 323 322 321 320 319 319 319 319 318 318 318 317 316 315 313 311 310 309 307 307 307 306 306 306 306 306 306 306 305 305 306 306 306 306 308 310 312 312 312 313 314 315 315 316 316 316 315 315 314 313 313 313 312 312 312 312 312 312 312
334 331 327 324 324 326 326 324 323 324 324 324 324 324 324 323 322 321 320 319 319 319 319 319 318 317 315 314 312 311 310 309 307 307 306 306 306 306 306 305 305 305 305 305 306 306 306 306 306 308 309 311 312 312 314 315 315 315 315 316 315 314 313 313 312 312 312 312 311 311 311 312 312 311
326 324 324 325 326 325 324 324 325 325 325 325 324 324 324 324 323 321 320 320 320 320 319 318 316 315 313 312 312 311 310 308 306 306 306 306 306 306 305 305 305 305 305 306 306 306 306 306 306 307 308 310 312 313 314 314 315 315 315 315 314 313 312 312 312 312 311 311 310 310 310 311 311 311
323 324 326 326 325 324 325 325 325 325 325 324 324 323 323 324 323 322 321 320 319 319 318 316 314 313 313 313 312 311 308 306 305 305 306 306 306 305 304 304 304 305 306 306 306 306 306 306 306 306 307 309 311 313 314 313 313 314 315 315 313 312 311 311 311 311 311 310 310 309 309 309 309 310
327 327 326 325 325 325 325 325 324 324 324 323 322 322 322 322 321 320 319 318 317 317 316 315 314 313 313 313 312 310 307 305 304 305 305 306 305 304 303 304 304 305 305 306 306 306 306 306 306 307 307 308 309 312 313 313 312 313 314 313 312 311 311 310 310 310 310 310 309 308 308 307 308 308
328 327 325 325 326 325 324 324 324 323 322 321 321 320 320 319 318 318 317 317 316 315 314 314 313 313 312 311 310 308 307 305 304 304 305 304 303 302 303 304 305 305 305 306 305 305 305 306 306 306 306 307 309 312 314 314 313 313 313 312 311 311 310 309 309 309 309 309 308 307 306 306 306 307
327 326 325 325 326 325 325 324 323 322 321 321 320 319 319 318 318 317 316 316 315 314 314 313 313 312 310 309 308 307 306 305 304 304 303 302 301 302 304 304 304 305 305 305 304 304 305 306 306 306 307 309 311 313 314 314 313 313 313 312 311 310 309 309 309 309 309 308 307 306 306 306 306 306
325 325 325 325 325 325 324 323 322 321 321 320 320 319 319 319 318 317 316 315 314 314 314 313 312 311 309 308 307 306 305 305 304 303 302 300 302 304 304 304 304 305 305 304 304 304 305 306 306 307 309 311 313 313 313 313 313 313 312 311 310 310 309 309 308 308 308 307 306 305 305 305 305 305
325 325 325 325 325 325 323 321 320 320 320 320 320 319 319 318 317 316 315 314 313 313 312 311 310 309 308 307 306 306 305 304 302 301 300 301 303 304 303 304 305 305 304 303 303 304 305 306 307 309 311 312 313 312 311 312 312 312 312 312 311 310 310 309 309 308 307 306 304 304 304 303 303 304
325 324 324 324 324 323 321 319 320 320 320 319 318 317 317 316 316 315 314 313 312 311 311 309 308 307 306 306 305 305 304 302 301 300 300 301 303 303 303 304 305 304 303 303 303 304 305 306 308 311 312 313 312 311 311 312 312 312 311 311 311 311 310 309 309 309 307 305 304 303 303 302 302 303
324 323 322 322 321 320 320 320 320 320 319 317 316 315 315 315 314 314 313 313 312 310 309 308 307 306 305 305 305 305 303 302 300 299 299 301 302 303 304 305 304 303 303 303 304 304 305 307 309 311 312 312 311 310 310 312 312 311 311 311 311 311 310 309 309 309 308 306 304 302 301 301 302 302
323 322 322 322 321 321 321 321 320 319 317 315 315 315 315 314 314 314 313 312 310 309 308 308 307 306 305 305 305 305 303 301 299 297 297 299 301 302 304 304 304 303 303 304 304 305 306 306 308 310 312 312 311 310 310 311 312 311 311 311 311 310 310 309 309 309 309 307 305 303 302 302 303 303
323 323 323 323 322 321 321 320 319 318 316 315 315 315 315 314 313 313 312 311 310 309 309 308 307 306 305 305 305 304 303 301 298 297 296 297 299 302 304 304 303 303 304 304 304 305 306 306 307 309 311 312 311 309 309 310 311 311 311 310 310 310 310 309 309 308 308 308 306 304 303 303 303 304
Wind_Speed
22 23 23 24 23 20 18 18 17 18 18 17 16 16 15 14 13 13 14 13 13 13 13 13 12 10 8 8 8 9 11 13 14 15 15 14 14 14 14 15 15 15 16 17 17 17 16 15 15 16 16 16 16 16 17 17 18 17 16 16 17 19 20 20 20 20 20 20 19 19 19 19 18 18
23 23 24 25 24 22 20 19 18 19 19 19 18 17 16 15 14 13 14 13 12 12 12 13 12 10 9 10 11 12 13 13 13 14 15 15 14 13 14 14 15 15 15 16 16 16 17 17 17 18 18 18 17 16 16 16 17 17 17 17 17 19 21 22 23 23 23 22 21 21 21 21 20 20
24 24 24 25 25 24 22 20 19 20 20 20 20 19 18 16 14 13 14 13 12 11 12 13 12 11 10 12 13 13 12 11 11 12 13 14 14 14 14 14 14 15 16 16 16 16 17 18 18 18 18 18 17 16 14 14 14 14 14 15 16 17 18 19 21 22 22 22 22 22 22 22 22 22
24 25 25 25 25 25 23 22 21 21 22 22 21 20 19 16 14 14 14 14 12 11 12 12 12 12 11 12 12 11 11 10 10 11 11 12 13 14 15 15 14 14 15 16 16 17 17 18 18 18 18 18 17 16 15 13 13 13 13 14 15 16 17 17 17 18 19 20 21 22 22 22 22 22
25 25 25 25 26 26 25 24 23 23 23 23 22 21 19 17 16 15 16 15 12 11 12 11 11 11 12 12 12 12 12 11 11 12 12 12 13 14 15 16 15 14 14 15 16 17 17 17 17 18 18 18 17 17 16 15 15 15 15 16 17 17 18 19 19 20 20 21 21 22 22 23 22 22
25 26 26 27 27 27 26 26 25 24 22 23 23 22 20 18 17 17 17 16 14 13 12 11 11 11 12 12 11 12 13 13 13 14 14 14 14 14 16 16 17 16 15 15 16 16 17 17 18 19 20 20 19 19 18 18 18 18 18 18 18 19 19 20 21 22 22 23 23 23 23 23 22 22
27 27 27 27 28 28 27 27 27 25 24 24 24 23 21 19 18 19 18 16 14 13 12 13 12 11 12 13 12 12 14 15 16 16 16 15 15 16 17 18 19 17 17 16 16 17 17 18 19 20 21 21 21 21 20 20 20 19 19 20 20 20 20 21 22 22 23 23 23 23 23 23 23 22
28 28 27 27 28 30 30 29 29 28 28 27 27 26 23 21 21 20 18 17 16 15 15 14 13 11 12 13 14 14 16 17 17 18 18 16 16 16 18 19 20 19 18 18 18 18 18 18 18 19 20 20 20 20 20 20 20 21 21 21 21 21 21 21 21 22 23 24 24 24 24 24 24 24
29 29 28 27 28 30 32 32 31 31 30 30 29 27 25 24 23 21 20 19 18 18 18 16 14 13 13 15 15 16 18 19 19 20 19 18 17 18 19 20 20 20 19 19 20 20 19 19 19 19 20 20 20 20 21 22 23 24 25 24 24 23 23 23 24 24 25 25 26 26 26 26 27 27
30 30 29 28 28 30 32 33 32 30 29 29 29 26 24 25 24 22 21 20 20 20 20 18 16 15 15 16 17 18 19 21 21 21 21 20 18 19 20 21 21 20 20 20 20 20 20 20 20 20 21 22 23 24 24 25 25 26 26 27 26 26 25 26 27 28 28 27 27 28 28 28 28 29
31 31 31 30 29 30 31 31 30 28 27 27 28 25 23 24 25 23 22 22 22 22 21 18 17 16 17 19 19 20 21 23 24 23 22 21 20 21 23 24 23 21 20 20 21 22 22 22 22 23 24 25 26 26 26 26 26 26 26 27 27 28 29 30 31 30 29 28 28 29 29 29 29 28
31 32 32 32 31 30 30 30 29 29 28 27 27 25 23 23 23 23 23 23 23 22 20 18 18 18 20 22 22 22 23 25 25 23 22 22 22 23 24 24 23 22 21 21 22 23 23 24 24 24 25 25 25 26 26 25 25 26 27 28 29 30 30 29 27 24 22 22 22 24 26 27 27 26
31 32 33 33 32 30 29 29 29 29 30 29 28 26 24 23 23 23 23 22 21 20 19 19 20 21 23 25 25 25 25 25 24 21 20 22 24 25 24 22 21 21 22 22 23 23 23 23 23 22 22 21 21 21 21 21 21 22 23 23 23 22 21 20 19 17 17 16 16 17 18 20 22 24
32 32 33 34 33 30 29 29 29 29 30 30 28 26 24 25 25 24 23 22 21 21 20 21 22 24 27 27 27 27 27 25 22 21 21 23 24 25 26 24 21 21 22 23 24 24 22 20 20 19 18 17 17 17 17 17 17 17 17 17 17 16 17 17 17 17 18 18 18 18 18 20 22 23
33 33 33 33 33 31 29 29 30 30 30 29 28 26 26 26 25 24 23 23 22 21 21 22 24 27 30 30 29 29 27 24 21 20 21 23 24 24 26 26 24 22 23 24 25 24 20 19 19 18 17 17 16 16 16 15 15 15 15 16 16 17 18 19 20 20 21 21 21 21 22 23 24 26
32 33 33 33 34 33 31 30 31 31 29 27 26 26 26 27 26 24 23 22 22 21 21 23 26 29 31 31 30 28 26 23 21 22 22 23 24 25 26 27 27 25 24 24 24 22 20 20 21 20 19 19 18 16 16 16 16 16 17 18 19 20 21 23 23 24 25 26 26 27 27 28 29 29
31 31 32 33 34 33 33 31 30 30 28 27 28 29 29 31 29 24 22 23 22 20 21 24 27 29 30 31 30 26 23 22 23 24 24 24 25 26 26 27 28 26 22 21 23 24 22 21 21 22 21 20 18 17 18 19 19 20 20 21 21 22 24 26 27 29 30 30 30 29 29 29 28 27
32 31 32 33 33 33 33 30 29 29 28 28 31 33 34 33 29 23 21 22 21 19 21 25 28 29 30 31 29 23 21 23 24 25 25 25 25 26 26 27 28 24 19 20 25 27 23 20 20 22 23 22 21 20 21 22 22 24 25 26 27 28 30 31 32 32 31 28 25 24 24 25 25 26
32 32 32 33 31 31 31 29 28 29 29 31 36 36 33 30 28 25 23 20 20 20 23 26 29 30 31 30 26 22 21 23 24 24 24 25 25 26 27 27 27 22 19 21 24 25 22 19 22 25 24 24 24 24 25 27 29 30 31 31 30 29 27 26 25 23 22 20 20 21 22 24 25 28
31 31 32 32 29 28 29 28 28 30 32 36 36 32 27 24 23 24 25 22 21 22 24 27 29 30 31 28 24 22 22 23 23 23 24 25 25 26 27 27 25 23 22 21 21 22 22 22 23 25 24 25 28 30 31 32 30 26 23 21 19 17 17 17 17 18 19 19 20 21 22 24 26 28
31 31 31 30 27 26 27 28 29 33 35 34 31 26 23 22 22 24 25 23 22 24 26 28 29 30 29 26 23 22 23 22 23 25 26 26 24 24 26 26 25 24 23 21 20 22 22 22 23 26 28 29 32 33 30 24 19 15 14 13 13 13 14 15 17 18 20 20 21 22 24 26 27 29
32 31 30 28 26 25 27 28 32 33 30 25 24 26 26 25 25 25 25 23 23 25 26 27 29 28 26 23 23 23 23 24 25 26 24 22 20 21 23 23 23 24 24 23 22 22 24 26 27 29 30 30 30 26 20 14 12 12 13 14 15 14 15 16 17 18 20 21 23 25 26 28 30 32
32 30 29 28 27 27 28 29 31 29 24 19 18 24 24 23 22 22 23 25 26 26 26 27 27 25 23 23 24 25 25 26 25 22 19 18 17 18 19 19 22 25 26 26 24 24 27 28 28 26 25 27 26 21 16 14 13 14 15 17 18 17 18 19 19 20 21 22 25 27 29 30 32 33
30 29 29 29 29 28 29 28 27 25 23 19 16 19 20 20 20 20 21 23 24 25 26 25 24 24 24 25 25 26 26 25 21 18 17 17 17 18 20 23 25 27 28 27 24 23 24 24 23 20 19 24 26 23 20 19 18 17 18 20 20 20 21 22 22 23 24 25 27 29 31 32 33 34
26 27 28 29 29 28 28 27 26 25 25 22 18 18 19 19 19 19 20 20 22 23 24 24 24 25 26 26 26 25 23 20 18 16 16 18 19 21 24 28 28 26 27 25 20 19 20 20 19 18 18 21 25 25 24 24 23 20 20 20 22 23 23 25 26 26 26 28 29 31 32 34 34 35
22 24 26 27 27 26 25 26 25 24 23 20 18 18 19 18 18 18 18 19 20 21 22 23 24 24 24 24 22 19 17 15 15 16 18 19 21 22 26 27 24 21 22 21 16 14 17 18 17 18 20 22 25 26 27 27 26 24 21 21 23 25 26 27 28 28 28 29 31 32 34 36 36 36
19 20 21 22 23 23 24 23 20 17 16 17 17 17 16 16 16 16 17 18 18 18 19 19 19 17 16 14 13 11 11 12 14 15 17 18 20 23 25 23 18 16 17 15 11 11 16 18 17 18 20 23 26 27 28 28 28 26 24 24 26 28 28 28 28 28 29 30 32 35 37 38 39 39
15 15 16 18 20 20 19 16 13 13 14 15 16 15 14 13 14 14 14 14 14 14 14 13 12 9 7 6 7 9 11 12 14 15 16 17 20 23 23 19 15 14 13 12 11 11 14 17 18 18 21 23 25 27 28 28 29 28 27 29 30 29 28 28 28 29 30 33 36 38 40 42 42 41
14 14 14 15 14 12 11 10 11 12 13 13 13 12 11 11 11 11 10 10 10 11 10 9 7 5 4 5 7 10 13 15 17 18 19 21 22 21 18 15 14 12 11 11 12 12 14 17 19 20 21 21 23 24 26 27 28 28 28 31 33 31 29 28 28 30 33 36 39 40 42 44 44 43
15 14 14 13 11 8 8 9 10 10 10 11 11 10 10 9 9 8 8 7 8 8 7 6 6 6 6 7 9 12 15 17 19 20 21 22 20 17 15 15 14 13 11 11 13 14 16 18 18 18 19 20 20 22 23 24 27 28 30 32 33 32 30 29 29 31 34 38 41 43 45 45 44 44
15 14 14 13 11 9 9 8 8 8 9 9 8 8 8 8 7 7 6 7 7 7 5 5 6 7 9 10 12 14 16 17 19 19 19 18 16 14 14 15 16 16 14 14 16 17 17 15 15 16 18 20 20 20 20 23 27 30 31 30 30 30 30 30 31 34 36 39 43 45 46 46 47 48
15 15 14 13 11 10 9 7 6 7 7 6 6 6 7 8 8 8 8 8 7 6 5 7 8 10 12 13 13 14 15 16 17 16 15 14 14 14 14 16 18 18 19 20 20 18 14 13 15 16 17 19 20 20 21 24 26 28 29 28 28 29 29 30 33 36 37 40 43 47 49 49 50 51
14 14 13 12 10 9 7 6 6 6 6 6 6 6 7 9 10 10 10 9 7 6 8 10 11 12 13 12 11 12 14 15 16 15 14 13 13 13 15 16 17 19 21 24 22 19 17 17 16 15 15 17 19 20 22 25 26 26 28 30 30 30 31 32 34 37 38 39 43 49 52 53 52 51
14 13 12 10 8 8 7 6 7 7 6 6 7 8 9 10 11 11 11 10 9 9 11 12 12 12 11 11 11 13 14 16 16 15 12 11 12 14 16 17 18 19 21 22 21 20 21 20 18 17 16 17 18 17 18 22 26 27 29 31 31 31 33 34 35 37 39 41 43 48 53 55 54 50
12 12 10 9 8 8 8 8 7 7 7 7 8 10 11 12 12 12 12 11 11 12 13 12 12 12 12 12 13 14 15 16 15 13 11 10 13 15 17 17 18 20 19 19 20 20 21 21 22 22 22 21 20 18 16 19 25 30 32 31 31 32 34 36 37 39 42 44 45 46 50 54 55 51
11 11 10 10 10 10 10 10 8 8 9 9 9 11 13 14 14 14 13 13 13 13 13 13 13 12 13 14 15 15 16 15 14 11 10 12 14 17 17 17 17 17 17 18 19 20 20 21 22 24 25 25 25 24 22 21 24 29 32 31 31 33 34 36 39 41 43 46 46 44 45 49 53 52
12 11 12 13 13 13 12 10 9 9 9 9 10 11 12 13 14 14 14 13 13 13 13 13 12 13 13 15 16 16 15 14 12 11 12 14 17 18 18 16 16 16 18 19 19 18 20 21 21 22 25 26 26 27 27 25 25 27 29 29 31 33 34 37 41 43 44 46 46 44 43 46 50 51
11 13 14 15 15 14 12 10 9 9 8 8 8 8 9 10 10 10 10 10 11 11 11 11 12 13 14 14 15 15 14 13 12 11 12 15 17 17 15 15 16 17 19 19 19 18 19 19 20 21 23 25 25 26 27 28 29 30 27 26 29 32 33 36 41 44 45 46 46 45 44 44 46 48
12 13 15 15 15 14 11 10 9 8 8 8 7 7 8 8 8 8 8 8 9 10 10 12 13 13 13 13 12 12 13 12 12 12 14 16 15 13 13 15 16 18 20 20 20 18 17 18 20 21 21 21 22 23 25 28 31 30 26 24 26 30 33 37 40 42 44 45 46 46 45 45 45 46
13 14 15 15 15 13 12 12 12 11 10 10 9 9 10 10 10 10 9 9 10 11 12 13 14 14 13 11 10 10 11 11 11 13 14 14 12 11 13 15 16 18 20 21 20 18 17 19 21 20 18 18 19 21 25 27 29 28 26 24 25 29 34 36 37 39 42 43 43 44 45 46 47 47
14 14 15 15 14 13 13 13 12 10 10 10 10 10 10 10 10 11 11 11 11 12 12 13 13 13 12 10 9 10 10 11 12 13 13 12 12 12 13 14 16 18 20 20 19 17 18 20 20 17 16 17 19 23 27 28 27 27 27 27 27 29 33 35 34 35 37 38 38 40 42 43 44 44
13 13 14 14 13 14 13 11 9 9 10 10 9 9 9 10 10 11 11 11 11 11 12 12 12 12 10 9 10 11 11 11 12 13 12 12 13 13 13 14 16 19 19 18 17 17 18 20 18 16 16 18 21 26 28 26 24 25 26 28 29 30 34 36 36 34 35 34 33 36 39 40 41 41
13 13 13 13 13 13 11 8 8 9 9 9 8 8 8 9 11 13 13 13 12 11 11 12 13 12 10 10 11 11 11 11 12 13 13 13 13 13 13 15 17 18 16 15 16 16 17 19 17 15 17 19 23 27 28 25 23 24 26 28 30 33 36 38 39 38 36 34 31 31 31 31 32 34
14 13 13 12 12 11 9 9 10 9 7 6 6 7 8 10 12 14 14 13 12 11 12 14 15 13 11 10 12 12 11 11 13 14 14 14 13 13 14 15 17 15 13 14 15 15 16 18 17 15 17 20 24 27 28 26 24 24 26 28 31 35 38 40 42 43 41 37 34 31 28 24 22 24
14 14 13 12 11 10 10 11 10 8 6 6 7 8 9 11 12 12 12 11 12 13 15 16 16 14 13 13 14 14 13 13 14 14 14 14 14 13 13 15 15 13 12 14 15 15 16 19 18 16 16 20 23 26 28 27 25 24 26 29 31 35 38 41 44 46 45 42 39 36 31 26 21 18
Wind_Direction
215 214 213 214 217 218 220 225 227 227 231 235 236 239 243 244 240 241 242 238 234 233 230 231 234 235 227 220 231 252 268 280 287 288 287 289 294 299 303 305 306 305 303 302 301 302 303 301 297 295 294 293 290 286 283 281 278 276 276 277 281 284 286 287 286 284 281 279 279 278 279 280 283 285
218 217 216 217 219 221 224 229 233 236 237 240 243 245 248 249 246 242 239 237 232 223 222 230 238 239 235 239 254 266 271 275 278 280 283 286 291 295 298 302 304 302 299 295 292 293 295 295 294 293 294 294 293 290 287 285 281 277 275 276 278 280 282 284 284 283 282 280 278 276 276 276 277 279
221 221 220 220 220 223 227 231 236 239 240 242 244 247 250 251 247 241 239 239 234 221 218 228 238 240 240 249 260 265 266 270 274 278 283 287 291 294 296 298 298 298 297 295 291 289 288 289 290 291 292 293 294 294 291 287 285 282 280 280 281 282 282 282 283 284 285 285 283 281 278 275 273 273
223 223 223 221 220 220 224 228 232 237 240 242 243 245 248 247 243 240 240 241 236 225 222 225 230 235 239 245 251 257 264 272 277 283 288 291 294 296 298 300 298 293 291 291 291 290 289 289 290 292 294 295 296 298 294 287 283 283 285 286 287 286 285 284 284 286 288 289 289 286 284 280 276 272
224 223 223 222 220 219 221 226 232 235 238 240 241 242 241 236 236 236 234 234 229 222 224 225 225 229 236 240 244 256 270 278 283 289 294 296 297 298 301 302 300 295 287 282 283 285 287 289 291 294 296 296 296 296 294 289 284 284 285 285 286 285 283 282 281 283 285 287 288 287 284 281 279 274
227 225 223 223 225 225 226 229 232 233 233 236 240 240 236 231 233 232 229 231 229 223 222 225 228 231 239 248 256 269 280 287 289 291 296 300 302 305 305 303 302 299 292 286 282 281 283 286 288 290 292 293 292 290 289 288 286 286 286 285 284 282 280 279 278 279 279 280 281 282 281 279 277 276
230 228 225 225 227 231 233 233 233 234 234 237 241 240 236 233 234 233 232 235 236 233 228 228 235 242 252 267 278 284 288 293 293 293 295 299 303 307 307 304 303 302 299 295 291 287 288 289 289 288 287 287 286 285 284 284 284 284 285 285 283 280 277 276 276 277 278 277 275 274 274 275 274 275
232 231 230 228 228 231 236 236 236 236 237 239 243 242 239 235 234 234 235 237 241 247 245 239 245 259 269 280 289 292 292 293 293 293 294 295 299 303 303 300 299 300 300 297 294 292 293 295 294 291 288 285 282 280 279 280 282 284 284 284 282 279 277 275 275 276 276 277 274 270 267 268 271 274
237 235 234 233 230 231 235 237 238 238 239 240 241 240 237 233 232 234 236 238 242 252 257 254 258 270 278 287 296 297 294 292 291 291 292 293 295 298 298 296 295 296 296 294 293 292 291 291 291 289 287 285 281 279 279 280 283 283 282 281 279 277 276 277 278 278 276 273 271 268 265 264 267 271
239 238 237 235 233 233 236 237 237 237 238 238 237 236 233 230 232 235 235 236 242 252 257 258 264 276 284 292 298 301 298 293 290 290 292 292 294 297 298 297 295 295 294 294 293 290 288 288 288 287 285 283 282 281 282 283 283 281 279 278 277 278 279 280 281 280 278 274 269 266 265 265 266 267
239 239 238 236 235 236 238 240 240 240 240 238 236 236 233 232 235 238 238 240 245 249 251 257 270 282 289 291 296 301 301 295 291 292 293 293 296 299 299 299 299 299 298 298 294 290 289 290 289 287 284 282 281 282 283 284 284 282 280 278 278 279 280 280 280 280 279 277 273 269 267 266 267 267
239 240 239 237 237 237 240 245 247 247 249 246 240 236 234 234 238 242 243 242 244 245 249 260 274 284 290 292 294 298 299 296 294 294 292 293 296 299 299 299 301 302 303 301 296 291 289 289 288 286 284 282 282 283 284 285 285 283 281 279 279 279 280 281 281 281 281 280 279 277 272 268 267 267
240 241 241 240 239 239 241 246 250 252 254 249 240 236 236 238 242 246 246 244 246 248 254 266 276 283 290 293 294 296 297 297 295 290 288 291 295 297 296 297 299 301 304 302 296 291 289 290 292 291 290 289 289 288 288 287 287 286 283 281 279 278 278 278 278 277 278 279 281 281 276 270 268 267
242 242 243 243 243 242 243 247 252 255 253 245 238 238 242 244 246 248 248 250 253 255 260 270 278 284 289 293 295 295 296 296 291 286 287 290 292 293 294 296 297 297 302 303 296 290 290 295 299 299 298 298 296 293 290 287 287 287 285 283 278 275 274 274 273 273 274 274 274 273 272 270 269 268
246 246 247 247 247 246 245 248 252 254 249 241 237 240 244 247 249 250 253 256 257 260 269 276 280 284 289 293 296 296 295 294 289 286 287 288 288 290 293 296 297 299 304 306 297 290 293 300 302 302 303 303 299 295 290 285 284 285 286 285 281 276 273 271 271 272 271 271 270 268 267 267 268 268
250 251 252 251 249 249 248 249 252 251 246 240 239 242 246 248 247 247 253 257 257 262 272 277 279 284 290 294 296 295 293 290 287 286 287 287 287 289 291 293 296 302 307 305 297 292 294 300 302 303 304 303 301 296 289 281 278 278 279 281 281 279 277 275 275 275 274 273 272 270 270 270 271 272
254 256 259 257 252 251 250 250 252 253 249 246 246 246 245 245 243 241 245 251 256 266 274 276 279 284 290 293 294 293 289 285 285 286 287 289 289 289 289 290 295 302 304 299 296 295 295 298 300 300 301 301 302 301 296 289 286 283 282 282 281 280 279 278 278 279 280 280 278 275 274 274 274 273
256 258 264 263 257 253 252 252 255 256 252 248 246 243 242 245 245 239 240 248 260 272 276 277 281 286 290 292 293 289 283 282 284 287 289 291 290 288 288 290 294 297 298 298 299 298 296 296 297 297 299 301 301 302 298 293 290 288 286 284 282 280 279 279 280 281 281 280 277 273 272 272 271 272
258 258 264 267 263 257 256 255 256 255 250 245 244 243 243 246 245 239 239 250 264 272 274 278 283 286 288 290 289 284 279 281 286 289 290 289 289 288 288 290 291 291 291 296 299 298 297 297 297 297 299 299 299 298 293 289 290 289 288 286 284 284 283 283 282 281 277 272 269 269 271 272 273 276
259 259 262 265 263 258 255 254 253 253 250 246 244 241 240 246 246 242 243 252 264 271 276 281 283 285 288 288 284 282 283 286 289 290 289 289 290 291 291 290 289 288 288 290 292 295 299 301 299 296 294 292 292 292 292 292 294 292 288 286 286 287 287 283 278 272 267 265 266 269 274 278 281 285
259 259 260 262 260 255 252 253 253 252 251 249 242 234 235 243 248 248 248 253 262 270 277 281 282 285 288 286 284 286 287 288 290 291 290 290 290 290 291 292 291 289 290 291 294 298 301 301 298 293 292 291 292 294 297 299 297 289 285 287 291 293 291 286 281 275 268 265 269 277 283 287 290 294
256 257 257 256 253 250 249 252 253 256 264 268 252 236 231 235 242 251 257 258 261 268 276 281 283 285 286 285 286 287 285 287 290 289 287 287 288 289 290 293 294 294 295 297 301 301 301 300 298 296 297 297 296 300 307 307 294 286 291 297 297 296 297 295 291 284 276 273 278 284 289 293 296 299
254 254 254 252 250 249 250 253 258 264 279 289 259 232 228 235 247 260 263 259 259 267 277 283 284 283 282 283 284 283 284 287 286 280 279 286 292 294 295 297 300 299 299 301 304 303 301 300 300 302 307 307 305 309 317 312 298 293 297 302 302 299 300 302 299 293 287 283 284 287 291 296 301 302
254 254 253 250 248 249 252 257 263 268 278 287 265 238 238 252 263 267 264 260 263 271 278 282 281 277 277 280 282 282 284 284 278 272 280 290 295 299 303 304 304 301 300 303 305 303 302 303 305 308 313 311 310 315 318 312 307 303 303 306 308 306 305 307 305 300 295 291 290 291 294 298 303 304
255 255 254 250 249 251 255 260 266 271 277 281 268 250 254 267 271 269 266 266 270 275 278 280 279 279 282 284 285 284 282 277 270 272 283 291 294 300 306 307 304 300 299 301 304 304 305 308 311 314 315 311 311 315 317 312 310 310 310 313 317 317 316 315 312 307 302 298 297 297 299 301 304 304
252 254 256 254 252 255 260 263 268 273 273 268 258 254 262 269 268 266 268 270 274 278 281 282 284 287 290 290 289 286 281 277 278 281 287 290 292 297 304 306 303 300 301 303 305 309 312 312 314 315 315 313 312 314 315 312 311 313 315 319 323 325 324 321 315 309 306 304 303 302 303 304 304 304
248 253 256 255 255 260 266 269 272 271 262 254 253 257 261 262 264 268 272 275 278 282 284 287 291 294 296 296 295 288 284 290 296 296 295 293 292 297 303 303 300 303 309 310 310 313 313 312 312 313 313 314 313 313 312 311 311 314 316 320 324 326 325 321 314 309 308 307 306 306 306 305 304 304
244 249 252 256 260 265 268 266 256 250 247 247 251 254 257 264 271 273 274 277 283 288 291 294 299 305 307 305 299 293 294 301 305 305 302 298 296 300 304 302 300 307 315 318 317 315 310 308 309 310 310 312 312 312 311 310 310 312 315 319 322 324 324 319 313 309 308 308 308 308 308 307 307 307
238 241 250 259 259 255 250 241 233 237 243 246 248 253 261 268 269 268 274 284 293 297 296 300 308 315 311 300 293 292 293 297 299 299 300 300 301 303 304 301 302 311 321 323 319 314 309 308 309 309 309 310 312 314 314 312 310 312 316 319 321 321 320 316 313 311 310 311 311 310 309 309 309 309
233 239 249 257 252 236 228 227 228 233 236 239 245 252 258 259 261 270 284 295 301 299 296 301 309 309 300 293 289 287 288 291 293 294 297 300 302 307 310 308 307 314 324 326 321 317 315 314 313 314 314 316 318 319 319 316 314 315 318 320 320 319 318 316 315 315 314 313 312 310 309 310 310 309
233 241 248 249 242 232 225 222 226 231 232 234 242 248 250 252 260 271 278 282 287 286 279 285 295 294 289 287 286 288 290 290 291 293 296 300 306 313 319 318 318 320 323 324 324 325 323 320 319 319 321 323 324 323 321 319 317 318 320 323 323 320 318 319 318 316 316 314 312 311 311 311 311 310
234 240 244 242 237 232 228 230 239 239 230 229 238 244 248 252 256 258 259 265 276 277 270 275 280 281 281 282 285 291 293 294 296 298 297 303 312 319 322 323 325 325 323 323 327 333 334 328 322 318 319 323 325 324 322 320 319 322 324 326 326 323 320 320 318 316 316 315 313 312 312 312 312 311
233 238 240 238 233 229 230 235 234 225 217 222 235 245 250 252 254 252 251 257 268 268 265 270 274 275 276 277 282 292 299 304 307 304 301 307 316 319 321 323 325 326 325 326 331 337 338 334 327 317 313 315 316 319 322 321 322 326 329 329 327 324 321 320 318 316 317 316 314 313 313 312 312 311
227 232 231 227 223 221 223 221 213 209 215 229 244 257 260 255 252 249 249 254 262 264 266 269 270 270 271 277 290 304 311 313 311 306 304 310 315 317 319 321 322 325 327 330 334 336 336 336 332 324 315 310 306 308 318 324 326 331 333 331 327 323 322 321 319 317 317 317 316 314 312 312 312 311
215 218 217 212 205 203 202 200 200 209 225 241 254 262 261 257 253 248 246 248 255 262 267 267 264 265 275 290 306 315 317 314 310 303 299 305 312 315 318 320 322 326 330 333 334 334 335 336 335 331 328 325 320 318 325 333 335 334 333 330 326 323 322 322 320 318 318 319 318 315 312 311 312 312
207 208 204 194 188 191 196 198 206 220 235 250 255 253 251 251 249 243 239 239 245 253 258 257 261 273 290 305 314 317 315 312 305 296 296 305 312 315 317 320 324 328 331 331 332 333 334 335 337 336 335 336 333 328 331 340 341 337 332 327 324 324 324 323 321 321 321 320 319 316 311 309 310 312
206 199 191 186 189 197 203 208 221 235 248 260 259 251 248 244 237 233 233 234 239 245 250 256 269 286 302 311 313 312 310 304 295 291 299 309 314 316 319 322 326 329 329 329 331 334 334 335 339 340 339 338 334 328 328 336 342 340 334 327 324 326 328 326 324 323 322 321 320 317 313 309 308 310
201 192 189 192 200 208 214 224 238 250 259 262 254 245 239 231 227 232 238 240 242 248 256 270 287 300 307 309 309 307 302 294 287 291 305 314 318 320 322 323 325 327 328 328 330 333 334 337 341 344 342 338 332 326 324 329 336 339 336 329 327 330 333 331 327 324 323 324 322 319 315 311 309 309
194 194 196 201 208 215 223 233 243 251 255 254 248 246 247 248 253 259 255 247 250 260 275 290 300 306 308 305 299 293 289 286 290 301 313 318 319 320 320 321 325 327 327 327 329 332 337 343 345 345 340 334 328 324 322 323 327 332 333 334 336 338 337 333 329 326 326 327 325 321 318 314 311 311
194 199 205 209 212 216 224 235 244 251 257 261 264 270 273 273 272 267 262 263 271 280 290 299 304 305 302 293 281 276 280 289 301 310 316 316 313 313 318 322 325 326 326 326 328 332 341 347 346 341 334 327 325 326 327 326 327 329 332 338 344 344 341 337 333 329 330 331 329 324 321 319 318 318
201 206 209 211 213 220 230 240 247 255 265 274 281 285 286 280 273 271 275 282 288 293 299 303 302 297 290 280 274 280 292 302 308 312 313 308 305 311 319 322 323 325 325 326 327 332 341 345 343 339 333 330 331 335 335 333 330 330 332 338 344 346 345 343 339 336 336 337 333 326 323 323 321 320
201 207 210 214 221 230 235 238 245 260 277 285 287 287 285 281 281 285 290 293 295 299 304 304 298 289 281 280 288 297 303 308 311 311 308 303 305 315 320 319 321 324 326 327 327 332 340 344 345 345 342 339 339 341 341 336 330 329 333 337 342 346 347 347 346 346 346 345 341 333 329 328 326 323
195 202 211 219 226 228 228 235 250 268 279 280 278 281 285 289 292 294 293 295 297 299 302 303 298 285 276 282 294 301 305 310 313 311 305 303 310 316 316 315 319 324 327 328 327 331 341 348 349 349 346 342 343 347 347 340 331 331 336 339 342 346 347 346 349 352 354 353 349 342 335 331 326 322
196 203 211 217 221 223 228 241 255 268 277 282 287 291 291 291 292 290 288 291 295 297 300 303 299 288 277 278 289 297 304 311 313 311 307 307 310 309 307 311 318 324 329 331 328 330 343 351 351 349 344 341 345 351 352 344 334 334 339 342 343 345 346 346 350 355 357 357 355 349 341 332 319 309
201 205 208 213 219 224 232 242 253 267 285 300 305 297 289 290 291 288 284 286 293 299 302 301 295 286 277 275 283 293 302 307 310 309 305 304 305 303 304 311 318 324 332 333 330 332 343 351 352 349 343 340 343 349 352 348 342 341 342 343 345 346 346 348 353 356 357 358 360 357 351 343 329 312